Regional Weather Roundup
Issued by NWS

Home | Current Version | Previous Version | Graphics & Text | Print | Product List | Glossary On
Versions: 1 2 3 4 5 6 7 8 9 10 11 12 13 14 15 16 17 18 19 20 21 22 23 24 25 26 27 28 29 30 31 32 33 34 35 36 37 38 39 40 41 42 43 44 45 46 47 48 49 50
000
ASUS43 KLSX 272159
RWRMO

WEATHER SUMMARY FOR MISSOURI
NATIONAL WEATHER SERVICE SPRINGFIELD MO
500 PM CDT WED AUG 27 2014

NOTE: "FAIR" INDICATES FEW OR NO CLOUDS BELOW 12,000 FEET WITH NO
       SIGNIFICANT WEATHER AND/OR OBSTRUCTIONS TO VISIBILITY.
       CURRENT SKY AND/OR WEATHER CONDITIONS ARE NOT AVAILABLE FOR
       CHILLICOTHE AND FARMINGTON.

MOZ001>031-035>038-043-044-053-054-272300-
...NORTHERN AND WESTERN MISSOURI...

CITY           SKY/WX    TMP DP  RH WIND       PRES   REMARKS
KANSAS CTY INT PTSUNNY   84  69  60 E13       30.06F
KANSAS C DTWN  MOSUNNY   86  71  60 E8        30.03F HX  91
LEE`S SUMMIT   SUNNY     85  72  65 E12       30.05F HX  91
ST JOSEPH      MOSUNNY   81  71  71 SE7       30.06F
KIRKSVILLE     CLOUDY    77  71  82 VRB3      30.10F

$$
MOZ066>068-077>081-088>096-101>105-272300-
...SOUTHWEST MISSOURI...

CITY           SKY/WX    TMP DP  RH WIND       PRES   REMARKS
SPRINGFIELD    PTSUNNY   87  67  51 NE16      30.05R HX  90
JOPLIN         MOSUNNY   93  66  40 VRB6      30.02F HX  96

$$
MOZ032>034-039>042-045>050-055>058-069>072-272300-
...CENTRAL MISSOURI...

CITY           SKY/WX    TMP DP  RH WIND       PRES   REMARKS
COLUMBIA       PTSUNNY   82  69  64 E14G21    30.07F
JEFFERSON CITY PTSUNNY   82  65  56 SE8       30.04S
ROLLA          CLOUDY    78  67  68 N9        30.05F
SEDALIA        PTSUNNY   87  73  62 NE12      30.06F HX  94
OSAGE BEACH    PTSUNNY   81  68  65 E6        30.06S

$$
MOZ051-052-059>065-272300-
...EAST CENTRAL MISSOURI...

CITY           SKY/WX    TMP DP  RH WIND       PRES   REMARKS
ST LOUIS INTL  TSTM      82  63  52 SE24G40   30.07R
SPIRIT OF STL  CLOUDY    88  73  61 E12       30.03R THUNDER HX  95
ST CHARLES     MOSUNNY   88  75  65 NE12      30.03S HX  97

$$
MOZ072>076-082>087-097>100-106>115-272300-
...SOUTH CENTRAL AND SOUTHEAST MISSOURI...

CITY           SKY/WX    TMP DP  RH WIND       PRES   REMARKS
CAPE GIRARDEAU SUNNY     91  74  57 SE7       30.01F HX 100
FARMINGTON     PTSUNNY   79  66  65 E7        30.07
POPLAR BLUFF   MOSUNNY   92  70  48 SE6       30.01F HX  97
WEST PLAINS    PTSUNNY   93  65  39 NE7       30.05F HX  95

$$



USA.gov is the U.S. government's official web portal to all federal, state and local government web resources and services.